Green Bay, WI

8:04 PM CDT on September 25, 2016 (GMT -0500)
Austin Straubel International

Weather History for KGRB - November, 2013

Change the Weather History Date:

Friday, November 8, 2013

  Actual Average Record
Temperature  
Mean Temperature 35 °F 38 °F  
Max Temperature 43 °F 46 °F 69 °F (1999)
Min Temperature 26 °F 30 °F 4 °F (1991)
Degree Days  
Heating Degree Days 30 27  
Month to date heating degree days 189 202  
Since 1 July heating degree days 887 1028  
Cooling Degree Days 0 0  
Month to date cooling degree days 0 0  
Year to date cooling degree days 535 398  
Moisture  
Dew Point 30 °F    
Average Humidity 81    
Maximum Humidity 92    
Minimum Humidity 70    
Precipitation  
Precipitation 0.02 in 0.06 in 0.85 in (1937)
Month to date precipitation 1.65 0.57  
Year to date precipitation 31.48 26.45  
Snow  
Snow 0.00 in 0.10 in 6.20 in (1890)
Month to date snowfall T 0.4  
Since 1 July snowfall T 0.6  
Since 1 September snowfall T 0.6  
Snow Depth 0.00 in    
Sea Level Pressure  
Sea Level Pressure 30.16 in    
Wind  
Wind Speed 8 mph (SW)    
Max Wind Speed 18 mph    
Max Gust Speed 23 mph    
Visibility 5 miles    
Events Rain    
T = Trace of Precipitation, MM = Missing Value Source: NWS Daily Summary

Daily Weather History Graph

Daily Weather History Graph

Search for Another Location

Airport or City:

Trip Planner

Search our weather history database for the weather conditions in past years. The results will help you decide how hot, cold, wet, or windy it might be!

Date:

Astronomy

Nov. 08, 2013 Rise Set
Actual Time 6:39 AM CST 4:32 PM CST
Civil Twilight 6:08 AM CST 5:03 PM CST
Nautical Twilight 5:34 AM CST 5:37 PM CST
Astronomical Twilight 4:59 AM CST 6:12 PM CST
Moon 11:35 AM CST (11/8) 9:53 PM CST (11/8)
Length of Visible Light 10h 54m
Length of Day
9h 52m
Waxing Crescent, 33% of the Moon is Illuminated
Nov 8
Waxing Crescent
Nov 9
First Quarter
Nov 17
Full
Nov 25
Last Quarter
Dec 2
New

Hourly Weather History & Observations

Time (CST) Temp. Windchill Dew Point Humidity Pressure Visibility Wind Dir Wind Speed Gust Speed Precip Events Conditions
12:53 AM 30.0 °F 21.1 °F 25.0 °F 82% 30.21 in 9.0 mi West 10.4 mph - N/A   Clear
1:53 AM 28.9 °F 21.1 °F 26.1 °F 89% 30.22 in 7.0 mi West 8.1 mph - N/A   Clear
2:53 AM 28.9 °F 21.9 °F 26.1 °F 89% 30.22 in 6.0 mi West 6.9 mph - N/A   Clear
3:53 AM 28.0 °F 20.0 °F 25.0 °F 88% 30.22 in 5.0 mi WNW 8.1 mph - N/A   Clear
4:53 AM 28.0 °F 20.8 °F 25.0 °F 88% 30.25 in 4.0 mi West 6.9 mph - N/A   Clear
5:53 AM 27.0 °F 20.5 °F 25.0 °F 92% 30.25 in 4.0 mi West 5.8 mph - N/A   Clear
6:53 AM 27.0 °F - 25.0 °F 92% 30.27 in 2.0 mi Calm Calm - N/A   Clear
7:53 AM 28.9 °F 22.8 °F 27.0 °F 92% 30.28 in 2.5 mi SW 5.8 mph - N/A   Partly Cloudy
8:15 AM 28.9 °F 22.8 °F 27.0 °F 92% 30.25 in 2.5 mi WSW 5.8 mph - N/A   Scattered Clouds
8:53 AM 30.0 °F 23.2 °F 28.0 °F 92% 30.28 in 2.5 mi WSW 6.9 mph - N/A   Mostly Cloudy
9:20 AM 30.0 °F 24.1 °F 28.0 °F 92% 30.25 in 1.8 mi WSW 5.8 mph - N/A   Overcast
9:53 AM 30.0 °F 22.4 °F 28.0 °F 92% 30.28 in 1.8 mi WSW 8.1 mph - N/A   Mostly Cloudy
10:11 AM 30.9 °F 23.5 °F 28.9 °F 92% 30.25 in 2.0 mi WSW 8.1 mph - N/A   Overcast
10:50 AM 33.8 °F 28.6 °F 30.2 °F 87% 30.23 in 3.0 mi West 5.8 mph - N/A   Scattered Clouds
10:53 AM 34.0 °F 28.0 °F 30.0 °F 85% 30.26 in 2.5 mi West 6.9 mph - N/A   Scattered Clouds
11:00 AM 35.1 °F 30.1 °F 30.0 °F 82% 30.23 in 3.0 mi West 5.8 mph - N/A   Haze
11:16 AM 36.0 °F 33.3 °F 30.0 °F 79% 30.22 in 2.5 mi West 3.5 mph - N/A   Haze
11:53 AM 37.0 °F 33.3 °F 30.9 °F 79% 30.22 in 2.5 mi WSW 4.6 mph - N/A   Haze
12:00 PM 39.0 °F 34.8 °F 30.9 °F 73% 30.19 in 4.0 mi SW 5.8 mph - N/A   Haze
12:53 PM 39.0 °F 34.0 °F 30.0 °F 70% 30.19 in 6.0 mi SSW 6.9 mph - N/A   Haze
1:53 PM 39.9 °F 34.5 °F 30.0 °F 68% 30.17 in 7.0 mi SSW 8.1 mph - N/A   Clear
2:53 PM 39.9 °F 35.1 °F 30.9 °F 70% 30.15 in 7.0 mi South 6.9 mph - N/A   Mostly Cloudy
3:53 PM 39.9 °F 36.7 °F 32.0 °F 73% 30.13 in 8.0 mi South 4.6 mph - N/A   Overcast
4:53 PM 39.9 °F 35.1 °F 30.0 °F 68% 30.08 in 10.0 mi SE 6.9 mph - N/A   Overcast
5:53 PM 39.0 °F 31.8 °F 30.9 °F 73% 30.08 in 10.0 mi SSE 11.5 mph - N/A   Overcast
6:53 PM 39.0 °F 31.4 °F 32.0 °F 76% 30.06 in 9.0 mi SSE 12.7 mph - N/A   Scattered Clouds
7:53 PM 39.9 °F 31.4 °F 34.0 °F 79% 30.02 in 7.0 mi SSE 16.1 mph - N/A   Clear
8:53 PM 41.0 °F 33.5 °F 34.0 °F 76% 29.99 in 8.0 mi SSE 13.8 mph - N/A   Scattered Clouds
9:53 PM 42.1 °F 36.1 °F 34.0 °F 73% 29.96 in 9.0 mi SSE 10.4 mph - N/A   Overcast
10:53 PM 43.0 °F 36.8 °F 35.1 °F 74% 29.90 in 10.0 mi SSE 11.5 mph - 0.00 in   Overcast
11:53 PM 42.1 °F 34.9 °F 37.0 °F 82% 29.85 in 7.0 mi SSE 13.8 mph - 0.01 in Rain Light Rain